DELTA 1 DEB, 5971

Orbit data source: Space-Track

DELTA 1 DEB, 5971 is space debris in SSO originally from a launch on Thu, 26 Jan 1967 UTC launched from the Air Force Western Test Range (AFWTR). Debris objects in space refer to the collection of defunct objects orbiting the Earth. Examples of debris include non-operational satellites, rocket bodies, and fragments generated from explosions, collisions, or faulty payload assembly.

Loading next visibility...
Identifier
5971, 1967-006E
Orbit
SSO
Country
Flag of USUS
Related business
Manufacturer
Unknown
Mission
Spacecraft
Bus & Motor
Unknown
Mass
Unknown
Launch date (UTC)
1967-01-26 (60 years ago)
Launch vehicle
Unknown
Launch site
Air Force Western Test Range (AFWTR)
Object type
Payload
Rocket body
Debris
Shape & HBR
Unknown shape, 0.1 m
Radar Cross Section
Medium (>0.1 m² and <1 m²)

Expand to show TLE details & history
Last TLE update: 2 days ago

TLE from 2 days ago
0 DELTA 1 DEB
1 05971U 67006E   26237.35629787 -.00000035  00000-0  66087-4 0  9998
2 05971 101.9536 184.7171 0112609 193.1377 319.4543 12.73487656769895
Epoch: 2026-08-25T08:33Z
TLE epoch observation values (Epoch: 2026-08-25T08:33:04.135Z)
Latitude
27.63127°
Longitude
-90.84399°
Altitude
1,305.005 km
Speed
7.237 km/s
True Right ascension
00h 44m 11s
True Declination
27° 30' 01"
Sunlit
Object was in full shadow at epoch
Visualization orbit readout
Latitude
Unknown
Longitude
Unknown
Altitude
Unknown
Speed
Unknown
Apparent Right ascension
Unknown
Apparent Declination
Unknown
Sunlit
N/A
Visualization observer readout
Local Sidereal Time
14:57:31
Azimuth
Unknown
Elevation
Unknown
Doppler factor
Unknown
Orbital elements
Apogee altitude
1,452.491 km
Perigee altitude
1,278.095 km
Semi-major axis
7,743.43 km
Eccentricity
0.01126
Inclination
101.9536°
RAAN
184.7171°
Arg. of periapsis
193.1377°
True anomaly
318.60643°
Mean anomaly
319.4543°
Eccentric anomaly
319.03128°
Mean motion
3.18525 °/min
Orbital period
113.02 mins
BSTAR
0.000066087
Loading maneuver chart data...
Computing Atmospheric mass density...
Loading historical data...
Loading historical data...
Loading historical data...
Loading historical data...
Loading historical data...
Loading historical data...
Loading historical data...
Other satellites on launch #6 in the year 1967 (1967-01-26 UTC)

Documentation

Showing up to 5 results
|